19.04.2024;18:00;59
19.04.2024;17:00;62
19.04.2024;16:00;67
19.04.2024;15:00;67
19.04.2024;14:00;67
19.04.2024;13:00;69
19.04.2024;12:00;69
19.04.2024;11:00;67
19.04.2024;10:00;62
19.04.2024;09:00;46
19.04.2024;08:00;40
19.04.2024;07:00;36
19.04.2024;06:00;29
19.04.2024;05:00;27
19.04.2024;04:00;25
19.04.2024;03:00;17
19.04.2024;02:00;22
19.04.2024;01:00;21
19.04.2024;00:00;25
18.04.2024;23:00;12
18.04.2024;22:00;29
18.04.2024;21:00;56
18.04.2024;20:00;67
18.04.2024;19:00;77
18.04.2024;18:00;79
18.04.2024;17:00;80
18.04.2024;16:00;77
18.04.2024;15:00;78
18.04.2024;14:00;78
18.04.2024;13:00;70
18.04.2024;12:00;61
18.04.2024;11:00;50
18.04.2024;10:00;35
18.04.2024;09:00;26
18.04.2024;08:00;24
18.04.2024;07:00;38
18.04.2024;06:00;51
18.04.2024;05:00;60
18.04.2024;04:00;65
18.04.2024;03:00;53
18.04.2024;02:00;52
18.04.2024;01:00;61
18.04.2024;00:00;58
17.04.2024;23:00;66
17.04.2024;22:00;67
17.04.2024;21:00;73
17.04.2024;20:00;73
17.04.2024;19:00;77
